timestamp,surface_pressure_avg,surface_temp_avg,battery_voltage,lat,long
2019-11-14 00:09:01+00:00,338.1413,8.2,12.57,47.84626,-54.09684
2019-11-14 00:19:01+00:00,347.1329,8.2,12.57,47.84626,-54.09684
2019-11-14 00:29:01+00:00,350.468,8.2,12.57,47.84626,-54.09684
2019-11-14 00:39:01+00:00,345.2147,8.2,12.57,47.84626,-54.09684
2019-11-14 00:49:01+00:00,348.1779,8.2,12.57,47.84626,-54.09684
2019-11-14 00:59:01+00:00,338.8013,8.2,12.57,47.84626,-54.09684
2019-11-14 01:09:01+00:00,325.0963,8.2,12.57,47.84626,-54.09684
2019-11-14 01:19:01+00:00,321.678,8.2,12.57,47.84626,-54.09684
2019-11-14 01:29:01+00:00,323.6813,8.2,12.57,47.84626,-54.09684
2019-11-14 01:39:01+00:00,312.5863,8.2,12.57,47.84626,-54.09684
2019-11-14 01:49:01+00:00,308.528,8.2,12.57,47.84626,-54.09684
2019-11-14 01:59:01+00:00,311.0546,8.2,12.57,47.84626,-54.09684
2019-11-14 02:09:01+00:00,306.1747,8.2,12.57,47.84626,-54.09684
2019-11-14 02:19:01+00:00,302.6097,8.2,12.57,47.84626,-54.09684
2019-11-14 02:29:01+00:00,305.333,8.2,12.57,47.84626,-54.09684
2019-11-14 02:39:01+00:00,302.6097,8.2,12.57,47.84626,-54.09684
2019-11-14 02:49:01+00:00,287.0013,8.2,12.57,47.84626,-54.09684
2019-11-14 02:59:01+00:00,280.1848,8.2,12.57,47.84626,-54.09684
2019-11-14 03:09:01+00:00,277.058,8.2,12.57,47.84626,-54.09684
2019-11-14 03:19:01+00:00,268.3347,8.2,12.57,47.84626,-54.09684
2019-11-14 03:29:01+00:00,257.6497,8.2,12.57,47.84626,-54.09684
2019-11-14 03:39:01+00:00,254.5714,8.2,12.57,47.84626,-54.09684
2019-11-14 03:49:01+00:00,256.8131,8.2,12.57,47.84626,-54.09684
2019-11-14 03:59:01+00:00,248.6265,8.2,12.57,47.84626,-54.09684
2019-11-14 04:09:01+00:00,235.3881,8.2,12.57,47.84626,-54.09684
2019-11-14 04:19:01+00:00,229.1581,8.2,12.57,47.84626,-54.09684
2019-11-14 04:29:01+00:00,230.4631,8.2,12.57,47.84626,-54.09684
2019-11-14 04:39:01+00:00,220.6081,8.2,12.57,47.84626,-54.09684
2019-11-14 04:49:01+00:00,206.9381,8.16,12.57,47.84626,-54.09684
2019-11-14 04:59:01+00:00,198.9131,8.11,12.57,47.84626,-54.09684
2019-11-14 05:09:01+00:00,193.0548,8.1,12.57,47.84626,-54.09684
2019-11-14 05:19:01+00:00,192.4031,8.1,12.49,47.84626,-54.09684
2019-11-14 05:29:01+00:00,195.2198,8.1,12.49,47.84626,-54.09684
2019-11-14 05:39:01+00:00,186.5598,8.1,12.49,47.84626,-54.09684
2019-11-14 05:49:01+00:00,173.7265,8.06,12.49,47.84626,-54.09684
2019-11-14 05:59:01+00:00,179.4048,8.06,12.49,47.84626,-54.09684
2019-11-14 06:09:01+00:00,187.0498,8.02,12.49,47.84626,-54.09684
2019-11-14 06:19:01+00:00,183.6531,8.0,12.49,47.84626,-54.09684
2019-11-14 06:29:01+00:00,181.4515,8.02,12.49,47.84626,-54.09684
2019-11-14 06:39:01+00:00,185.6098,8.09,12.49,47.84626,-54.09684
2019-11-14 06:49:01+00:00,188.1581,8.1,12.49,47.84626,-54.09684
2019-11-14 06:59:01+00:00,187.7798,8.1,12.49,47.84626,-54.09684
2019-11-14 07:09:01+00:00,191.6082,8.1,12.49,47.84626,-54.09684
2019-11-14 07:19:01+00:00,203.2415,8.1,12.49,47.84626,-54.09684
2019-11-14 07:29:01+00:00,208.9098,8.0,12.49,47.84626,-54.09684
2019-11-14 07:39:01+00:00,202.5698,8.0,12.49,47.84626,-54.09684
2019-11-14 07:49:01+00:00,211.4331,7.99,12.49,47.84626,-54.09684
2019-11-14 07:59:01+00:00,225.5048,7.92,12.49,47.84626,-54.09684
2019-11-14 08:09:01+00:00,223.3731,7.9,12.49,47.84626,-54.09684
2019-11-14 08:19:01+00:00,223.4948,7.9,12.49,47.84626,-54.09684
2019-11-14 08:29:01+00:00,234.9264,7.9,12.49,47.84626,-54.09684
2019-11-14 08:39:01+00:00,243.6864,7.89,12.49,47.84626,-54.09684
2019-11-14 08:49:01+00:00,245.6765,7.88,12.49,47.84626,-54.09684
2019-11-14 08:59:01+00:00,245.8114,7.84,12.49,47.84626,-54.09684
2019-11-14 09:09:01+00:00,253.4098,7.8,12.49,47.84626,-54.09684
2019-11-14 09:19:01+00:00,264.7014,7.8,12.49,47.84626,-54.09684
2019-11-14 09:29:01+00:00,270.3831,7.8,12.49,47.84626,-54.09684
2019-11-14 09:39:01+00:00,270.5414,7.76,12.49,47.84626,-54.09684
2019-11-14 09:49:01+00:00,279.6897,7.7,12.49,47.84626,-54.09684
2019-11-14 09:59:01+00:00,294.6847,7.7,12.49,47.84626,-54.09684
2019-11-14 10:09:01+00:00,300.8196,7.66,12.49,47.84626,-54.09684
2019-11-14 10:19:01+00:00,303.3781,7.69,12.49,47.84626,-54.09684
2019-11-14 10:29:01+00:00,320.2264,7.7,12.49,47.84626,-54.09684
2019-11-14 10:39:01+00:00,332.0696,7.7,12.49,47.84626,-54.09684
2019-11-14 10:49:01+00:00,327.4513,7.7,12.49,47.84626,-54.09684
2019-11-14 10:59:01+00:00,324.2346,7.83,12.49,47.84626,-54.09684
2019-11-14 11:09:01+00:00,343.0913,7.8,12.49,47.84626,-54.09684
2019-11-14 11:19:01+00:00,358.3463,7.8,12.57,47.84626,-54.09684
2019-11-14 11:29:01+00:00,356.1564,7.86,12.57,47.84626,-54.09684
2019-11-14 11:39:01+00:00,358.2097,7.99,12.57,47.84626,-54.09684
2019-11-14 11:49:01+00:00,377.6379,7.9,12.57,47.84626,-54.09684
2019-11-14 11:59:01+00:00,383.8463,7.9,12.57,47.84626,-54.09684
2019-11-14 12:09:01+00:00,378.1329,7.9,12.57,47.84626,-54.09684
2019-11-14 12:19:01+00:00,383.728,8.0,14.0,47.84626,-54.09684
2019-11-14 12:29:01+00:00,392.5378,7.9,14.0,47.84626,-54.09684
2019-11-14 12:39:01+00:00,384.2213,7.9,14.0,47.84626,-54.09684
2019-11-14 12:49:01+00:00,375.4846,7.9,14.0,47.84626,-54.09684
2019-11-14 12:59:01+00:00,382.3495,7.9,14.0,47.84626,-54.09684
2019-11-14 13:09:01+00:00,383.8879,7.89,14.0,47.84626,-54.09684
2019-11-14 13:19:01+00:00,377.7228,7.89,14.64,47.84626,-54.09684
2019-11-14 13:29:01+00:00,382.9379,7.86,14.64,47.84626,-54.09684
2019-11-14 13:39:01+00:00,392.8812,7.85,14.64,47.84626,-54.09684
2019-11-14 13:49:01+00:00,384.2846,7.85,14.64,47.84626,-54.09684
2019-11-14 13:59:01+00:00,375.2479,7.85,14.64,47.84626,-54.09684
2019-11-14 14:09:01+00:00,375.4945,7.86,14.64,47.84626,-54.09684
2019-11-14 14:19:01+00:00,368.418,7.85,14.72,47.84626,-54.09684
2019-11-14 14:29:01+00:00,358.5529,7.85,14.72,47.84626,-54.09684
2019-11-14 14:39:01+00:00,356.0662,7.87,14.72,47.84626,-54.09684
2019-11-14 14:49:01+00:00,351.6113,7.87,14.72,47.84626,-54.09684
2019-11-14 14:59:01+00:00,341.5563,7.88,14.72,47.84626,-54.09684
2019-11-14 15:09:01+00:00,335.733,7.88,14.72,47.84626,-54.09684
2019-11-14 15:19:01+00:00,332.0963,7.87,14.64,47.84626,-54.09684
2019-11-14 15:29:01+00:00,327.8713,7.7,14.64,47.84626,-54.09684
2019-11-14 15:39:01+00:00,326.228,7.6,14.64,47.84626,-54.09684
2019-11-14 15:49:01+00:00,317.9946,7.78,14.64,47.84626,-54.09684
2019-11-14 15:59:01+00:00,307.358,7.8,14.64,47.84626,-54.09684
2019-11-14 16:09:01+00:00,297.6164,7.8,14.64,47.84626,-54.09684
2019-11-14 16:19:01+00:00,291.8298,7.8,14.56,47.84626,-54.09684
2019-11-14 16:29:01+00:00,277.6081,7.7,14.56,47.84626,-54.09684
2019-11-14 16:39:01+00:00,263.4197,7.65,14.56,47.84626,-54.09684
2019-11-14 16:49:01+00:00,257.9664,7.74,14.56,47.84626,-54.09684
2019-11-14 16:59:01+00:00,252.9131,7.76,14.56,47.84626,-54.09684
2019-11-14 17:09:01+00:00,238.2614,7.7,14.56,47.84626,-54.09684
2019-11-14 17:19:01+00:00,232.6531,7.7,14.56,47.84626,-54.09684
2019-11-14 17:29:01+00:00,231.7747,7.7,14.56,47.84626,-54.09684
2019-11-14 17:39:01+00:00,224.6048,7.7,14.56,47.84626,-54.09684
2019-11-14 17:49:01+00:00,214.8497,7.7,14.56,47.84626,-54.09684
2019-11-14 17:59:01+00:00,212.8431,7.7,14.56,47.84626,-54.09684
2019-11-14 18:09:01+00:00,206.9097,7.7,14.56,47.84626,-54.09684
2019-11-14 18:19:01+00:00,199.8682,7.7,14.48,47.84626,-54.09684
2019-11-14 18:29:01+00:00,202.3931,7.7,14.48,47.84626,-54.09684
2019-11-14 18:39:01+00:00,207.1281,7.77,14.48,47.84626,-54.09684
2019-11-14 18:49:01+00:00,201.0065,7.79,14.48,47.84626,-54.09684
2019-11-14 18:59:01+00:00,202.3665,7.8,14.48,47.84626,-54.09684
2019-11-14 19:09:01+00:00,211.0131,7.79,14.48,47.84626,-54.09684
2019-11-14 19:19:01+00:00,212.0348,7.79,14.08,47.84626,-54.09684
2019-11-14 19:29:01+00:00,215.3781,7.79,14.08,47.84626,-54.09684
2019-11-14 19:39:01+00:00,221.0497,7.7,14.08,47.84626,-54.09684
2019-11-14 19:49:01+00:00,222.4964,7.7,14.08,47.84626,-54.09684
2019-11-14 19:59:01+00:00,219.4315,7.7,14.08,47.84626,-54.09684
2019-11-14 20:09:01+00:00,225.7481,7.7,14.08,47.84626,-54.09684
2019-11-14 20:19:01+00:00,235.0564,7.7,13.53,47.84626,-54.09684
2019-11-14 20:29:01+00:00,237.0831,7.7,13.53,47.84626,-54.09684
2019-11-14 20:39:01+00:00,240.3331,7.83,13.53,47.84626,-54.09684
2019-11-14 20:49:01+00:00,245.9498,8.0,13.53,47.84626,-54.09684
2019-11-14 20:59:01+00:00,252.8698,8.0,13.53,47.84626,-54.09684
2019-11-14 21:09:01+00:00,259.2997,8.0,13.53,47.84626,-54.09684
2019-11-14 21:19:01+00:00,261.9998,8.0,13.13,47.84626,-54.09684
2019-11-14 21:29:01+00:00,263.5464,8.0,13.13,47.84626,-54.09684
2019-11-14 21:39:01+00:00,271.0814,7.99,13.13,47.84626,-54.09684
2019-11-14 21:49:01+00:00,278.1997,7.9,13.13,47.84626,-54.09684
2019-11-14 21:59:01+00:00,286.158,7.99,13.13,47.84626,-54.09684
2019-11-14 22:09:01+00:00,293.8014,8.0,13.13,47.84626,-54.09684
2019-11-14 22:19:01+00:00,300.9597,8.0,12.89,47.84626,-54.09684
2019-11-14 22:29:01+00:00,305.9147,7.9,12.89,47.84626,-54.09684
2019-11-14 22:39:01+00:00,314.608,7.9,12.89,47.84626,-54.09684
2019-11-14 22:49:01+00:00,328.4963,7.98,12.89,47.84626,-54.09684
2019-11-14 22:59:01+00:00,335.2447,8.0,12.89,47.84626,-54.09684
2019-11-14 23:09:01+00:00,337.30300000000005,8.0,12.89,47.84626,-54.09684
2019-11-14 23:19:01+00:00,339.6380000000001,8.0,12.73,47.84626,-54.09684
2019-11-14 23:29:01+00:00,347.2646,8.0,12.73,47.84626,-54.09684
2019-11-14 23:39:01+00:00,349.8729,8.01,12.73,47.84626,-54.09684
2019-11-14 23:49:01+00:00,346.8596,8.04,12.73,47.84626,-54.09684
2019-11-14 23:59:01+00:00,355.7029,8.02,12.73,47.84626,-54.09684
